Location: Napier
(39.4830°S, 176.9170°E)
Time: 03:17:15
(UTC+12:00)

SMAP - Pass Details

Date: 15 August 2020
Orbit: 681 x 683 km, 98.1° (Epoch: 20 September)

Event Time Altitude Azimuth Distance (km) Brightness Sun altitude
Rises 17:56:36 0° 159° (SSE) 3,083 6.1 -5.0°
Reaches altitude 10° 17:59:00 10° 151° (SSE) 2,159 5.2 -5.4°
Maximum altitude 18:03:24 38° 82° (E) 1,052 3.6 -6.2°
Drops below altitude 10° 18:07:45 10° 14° (NNE) 2,132 5.6 -7.1°
Sets 18:10:07 0° 5° (N) 3,038 6.5 -7.5°
